KLM833 LGAV-OMDB

Flight info

Callsign KLM833
Flight time 4h 24m
Altitude 35000
Route KEA UL607 PAXIS Y707 OBRAN L321 REXUM M872 BDB Y214 RAPMA DCT KUVSO DCT KATIT DCT PEKEM M628 RIGIL G783 ASPED Q308 KIPOK Q568 IMPED
Aircraft B742/H-SDFHIRWXY/L

Departure

Time 2026-05-07 11:28
Airport Athens Eleftherios Venizelos International Airport (LGAV)

Arrival

Time 2026-05-07 15:52
Airport Dubai International Airport (OMDB)
Time Latitude Longitude Altitude Speed Heading
2026-05-07 10:45 37.93789 23.95027 290 ft 0 kts 306°
2026-05-07 11:10 37.93786 23.95033 290 ft 2 kts 306°
2026-05-07 11:11 37.93777 23.95048 290 ft 2 kts 306°
2026-05-07 11:11 37.93768 23.95063 290 ft 2 kts 306°
2026-05-07 11:11 37.93759 23.95078 290 ft 2 kts 322°
2026-05-07 11:11 37.93745 23.95086 290 ft 2 kts 346°
2026-05-07 11:12 37.93730 23.95088 290 ft 2 kts
2026-05-07 11:12 37.93716 23.95083 290 ft 2 kts 27°
2026-05-07 11:12 37.93704 23.95072 290 ft 2 kts 40°
2026-05-07 11:12 37.93700 23.95069 290 ft 0 kts 40°
2026-05-07 11:17 37.93703 23.95071 290 ft 1 kts 38°
2026-05-07 11:18 37.93722 23.95088 290 ft 5 kts 36°
2026-05-07 11:18 37.93765 23.95128 290 ft 8 kts 37°
2026-05-07 11:18 37.93814 23.95175 290 ft 8 kts 37°
2026-05-07 11:18 37.93859 23.95229 290 ft 9 kts 57°
2026-05-07 11:19 37.93884 23.95308 290 ft 10 kts 73°
2026-05-07 11:19 37.93873 23.95387 290 ft 8 kts 127°
2026-05-07 11:19 37.93851 23.95452 289 ft 8 kts 79°
2026-05-07 11:19 37.93888 23.95506 289 ft 8 kts 37°
2026-05-07 11:20 37.93937 23.95551 289 ft 9 kts 37°
2026-05-07 11:20 37.93988 23.95601 289 ft 9 kts 37°
2026-05-07 11:20 37.94043 23.95653 289 ft 10 kts 37°
2026-05-07 11:20 37.94105 23.95712 289 ft 11 kts 37°
2026-05-07 11:21 37.94173 23.95778 289 ft 12 kts 38°
2026-05-07 11:21 37.94248 23.95850 289 ft 13 kts 36°
2026-05-07 11:21 37.94330 23.95925 289 ft 15 kts 36°
2026-05-07 11:21 37.94418 23.96008 289 ft 16 kts 37°
2026-05-07 11:22 37.94510 23.96096 289 ft 16 kts 37°
2026-05-07 11:22 37.94601 23.96183 289 ft 16 kts 37°
2026-05-07 11:22 37.94690 23.96268 289 ft 15 kts 37°
2026-05-07 11:22 37.94773 23.96348 289 ft 14 kts 37°
2026-05-07 11:23 37.94855 23.96425 289 ft 14 kts 37°
2026-05-07 11:23 37.94934 23.96499 289 ft 13 kts 36°
2026-05-07 11:23 37.95013 23.96574 289 ft 14 kts 38°
2026-05-07 11:23 37.95098 23.96656 289 ft 15 kts 36°
2026-05-07 11:24 37.95185 23.96736 289 ft 15 kts 37°
2026-05-07 11:24 37.95267 23.96814 289 ft 14 kts 37°
2026-05-07 11:24 37.95345 23.96887 289 ft 13 kts 36°
2026-05-07 11:24 37.95386 23.96970 289 ft 10 kts 98°
2026-05-07 11:25 37.95334 23.97019 289 ft 9 kts 170°
2026-05-07 11:25 37.95268 23.97031 289 ft 9 kts 172°
2026-05-07 11:25 37.95204 23.97029 289 ft 8 kts 202°
2026-05-07 11:25 37.95179 23.97009 289 ft 0 kts 215°
2026-05-07 11:27 37.95043 23.96880 289 ft 55 kts 217°
2026-05-07 11:27 37.94569 23.96431 289 ft 114 kts 217°
2026-05-07 11:27 37.93786 23.95684 295 ft 163 kts 217°
2026-05-07 11:28 37.92812 23.94818 641 ft 175 kts 211°
2026-05-07 11:28 37.91764 23.94072 1232 ft 174 kts 209°
2026-05-07 11:28 37.90717 23.93342 1873 ft 171 kts 208°
2026-05-07 11:28 37.89675 23.92625 2351 ft 176 kts 208°
2026-05-07 11:29 37.88537 23.91847 2645 ft 191 kts 208°
2026-05-07 11:29 37.87354 23.91043 2904 ft 194 kts 208°
2026-05-07 11:29 37.86147 23.90225 3172 ft 197 kts 207°
2026-05-07 11:29 37.84934 23.89405 3436 ft 200 kts 207°
2026-05-07 11:30 37.83672 23.88554 3589 ft 211 kts 207°
2026-05-07 11:30 37.82339 23.87656 3707 ft 223 kts 207°
2026-05-07 11:30 37.80915 23.86698 3830 ft 240 kts 207°
2026-05-07 11:30 37.79389 23.85671 3960 ft 257 kts 207°
2026-05-07 11:31 37.77732 23.84684 4312 ft 263 kts 194°
2026-05-07 11:31 37.75919 23.84685 4880 ft 263 kts 163°
2026-05-07 11:31 37.74366 23.85880 5305 ft 270 kts 133°
2026-05-07 11:31 37.73294 23.87827 5809 ft 274 kts 121°
2026-05-07 11:32 37.71469 23.92122 6794 ft 280 kts 118°
2026-05-07 11:32 37.70575 23.94282 7300 ft 283 kts 118°
2026-05-07 11:32 37.69659 23.96489 7837 ft 284 kts 118°
2026-05-07 11:33 37.68733 23.98719 8331 ft 287 kts 117°
2026-05-07 11:33 37.67805 24.00952 8784 ft 291 kts 117°
2026-05-07 11:33 37.66864 24.03215 9247 ft 294 kts 117°
2026-05-07 11:33 37.65904 24.05519 9721 ft 296 kts 117°
2026-05-07 11:34 37.64946 24.07819 10024 ft 305 kts 117°
2026-05-07 11:34 37.63938 24.10238 10193 ft 321 kts 117°
2026-05-07 11:34 37.62866 24.12807 10340 ft 338 kts 117°
2026-05-07 11:34 37.61746 24.15486 10471 ft 355 kts 117°
2026-05-07 11:35 37.60564 24.18313 10618 ft 373 kts 117°
2026-05-07 11:35 37.59347 24.21217 11143 ft 378 kts 117°
2026-05-07 11:35 37.58119 24.24151 11784 ft 379 kts 117°
2026-05-07 11:35 37.56876 24.27105 12314 ft 384 kts 118°
2026-05-07 11:36 37.55319 24.29806 12819 ft 387 kts 134°
2026-05-07 11:36 37.53223 24.31995 13347 ft 389 kts 146°
2026-05-07 11:36 37.50943 24.33823 13860 ft 393 kts 149°
2026-05-07 11:36 37.48608 24.35644 14367 ft 397 kts 147°
2026-05-07 11:37 37.46329 24.37610 14938 ft 399 kts 146°
2026-05-07 11:37 37.44065 24.39635 15459 ft 402 kts 146°
2026-05-07 11:37 37.41801 24.41668 15955 ft 404 kts 146°
2026-05-07 11:37 37.39481 24.43744 16467 ft 407 kts 146°
2026-05-07 11:38 37.37177 24.45796 16947 ft 409 kts 146°
2026-05-07 11:38 37.34835 24.47877 17439 ft 412 kts 146°
2026-05-07 11:38 37.32496 24.49952 17933 ft 414 kts 146°
2026-05-07 11:38 37.30125 24.52052 18347 ft 419 kts 146°
2026-05-07 11:39 37.27745 24.54160 18800 ft 422 kts 146°
2026-05-07 11:39 37.25342 24.56286 19273 ft 424 kts 146°
2026-05-07 11:39 37.22930 24.58418 19666 ft 429 kts 146°
2026-05-07 11:39 37.20470 24.60593 20150 ft 431 kts 146°
2026-05-07 11:40 37.18030 24.62746 20566 ft 434 kts 146°
2026-05-07 11:40 37.15523 24.64958 21011 ft 437 kts 146°
2026-05-07 11:40 37.13054 24.67117 21402 ft 441 kts 147°
2026-05-07 11:40 37.10507 24.69322 21782 ft 444 kts 148°
2026-05-07 11:41 37.07951 24.71543 22208 ft 446 kts 147°
2026-05-07 11:41 37.05388 24.73780 22631 ft 448 kts 147°
2026-05-07 11:41 37.02846 24.76005 22977 ft 452 kts 147°
2026-05-07 11:41 37.00268 24.78265 23366 ft 455 kts 147°
2026-05-07 11:42 36.97652 24.80557 23688 ft 459 kts 147°
2026-05-07 11:42 36.95031 24.82853 24076 ft 462 kts 147°
2026-05-07 11:42 36.92393 24.85162 24397 ft 466 kts 147°
2026-05-07 11:42 36.89737 24.87484 24728 ft 469 kts 147°
2026-05-07 11:43 36.87021 24.89859 25094 ft 471 kts 147°
2026-05-07 11:43 36.84321 24.92219 25399 ft 475 kts 147°
2026-05-07 11:43 36.81609 24.94585 25675 ft 479 kts 147°
2026-05-07 11:43 36.78879 24.96965 26012 ft 481 kts 147°
2026-05-07 11:44 36.76148 24.99344 26310 ft 484 kts 147°
2026-05-07 11:44 36.73365 25.01767 26637 ft 486 kts 147°
2026-05-07 11:44 36.70530 25.04232 26923 ft 489 kts 147°
2026-05-07 11:44 36.67738 25.06657 27232 ft 491 kts 147°
2026-05-07 11:45 36.64925 25.09098 27478 ft 495 kts 147°
2026-05-07 11:45 36.62133 25.11520 27826 ft 496 kts 147°
2026-05-07 11:45 36.59261 25.14008 28052 ft 499 kts 147°
2026-05-07 11:45 36.56405 25.16480 28274 ft 503 kts 147°
2026-05-07 11:46 36.53544 25.18954 28533 ft 505 kts 147°
2026-05-07 11:46 36.50651 25.21453 28830 ft 506 kts 147°
2026-05-07 11:46 36.47753 25.23955 29120 ft 508 kts 147°
2026-05-07 11:46 36.44863 25.26448 29379 ft 509 kts 147°
2026-05-07 11:47 36.41936 25.28969 29595 ft 512 kts 147°
2026-05-07 11:47 36.39002 25.31495 29856 ft 514 kts 147°
2026-05-07 11:47 36.36103 25.33987 30108 ft 515 kts 147°
2026-05-07 11:47 36.33124 25.36546 30248 ft 519 kts 147°
2026-05-07 11:48 36.30151 25.39098 30559 ft 519 kts 147°
2026-05-07 11:48 36.27183 25.41644 30752 ft 522 kts 147°
2026-05-07 11:48 36.24207 25.44194 30926 ft 524 kts 147°
2026-05-07 11:48 36.21198 25.46768 31124 ft 526 kts 147°
2026-05-07 11:49 36.18148 25.49377 31324 ft 529 kts 147°
2026-05-07 11:49 36.15136 25.51950 31523 ft 531 kts 147°
2026-05-07 11:49 36.12104 25.54537 31758 ft 532 kts 147°
2026-05-07 11:49 36.09067 25.57127 31886 ft 535 kts 147°
2026-05-07 11:50 36.05994 25.59744 32071 ft 537 kts 147°
2026-05-07 11:50 36.02913 25.62365 32204 ft 540 kts 147°
2026-05-07 11:50 35.99792 25.65018 32363 ft 543 kts 148°
2026-05-07 11:50 35.96653 25.67665 32595 ft 544 kts 149°
2026-05-07 11:51 35.93514 25.70287 32712 ft 547 kts 149°
2026-05-07 11:51 35.90393 25.72896 32864 ft 549 kts 148°
2026-05-07 11:51 35.87212 25.75568 32976 ft 552 kts 148°
2026-05-07 11:52 35.80834 25.80950 33207 ft 557 kts 148°
2026-05-07 11:52 35.77657 25.83636 33452 ft 556 kts 148°
2026-05-07 11:52 35.74472 25.86324 33724 ft 555 kts 148°
2026-05-07 11:52 35.71321 25.88981 33979 ft 554 kts 148°
2026-05-07 11:53 35.68147 25.91655 34212 ft 554 kts 148°
2026-05-07 11:53 35.64963 25.94333 34433 ft 555 kts 148°
2026-05-07 11:53 35.61785 25.97003 34673 ft 554 kts 148°
2026-05-07 11:53 35.58578 25.99695 34904 ft 554 kts 148°
2026-05-07 11:54 35.55388 26.02369 35104 ft 555 kts 148°
2026-05-07 11:54 35.49000 26.07715 35142 ft 562 kts 148°
2026-05-07 11:55 35.42490 26.13153 35148 ft 566 kts 148°
2026-05-07 11:55 35.36032 26.18543 35146 ft 559 kts 148°
2026-05-07 11:56 35.29610 26.23888 35147 ft 561 kts 148°
2026-05-07 11:56 35.23077 26.29310 35149 ft 568 kts 148°
2026-05-07 11:57 35.16573 26.34706 35150 ft 565 kts 148°
2026-05-07 11:57 35.10057 26.40098 35152 ft 567 kts 148°
2026-05-07 11:58 35.03549 26.45470 35151 ft 568 kts 147°
2026-05-07 11:58 34.96975 26.50887 35150 ft 568 kts 147°
2026-05-07 11:59 34.90418 26.56281 35148 ft 571 kts 147°
2026-05-07 11:59 34.83849 26.61676 35154 ft 568 kts 147°
2026-05-07 12:00 34.77286 26.67043 35154 ft 569 kts 148°
2026-05-07 12:00 34.70667 26.72378 35154 ft 573 kts 148°
2026-05-07 12:01 34.64062 26.77734 35155 ft 567 kts 148°
2026-05-07 12:01 34.57546 26.83037 35156 ft 569 kts 148°
2026-05-07 12:02 34.50918 26.88426 35158 ft 574 kts 148°
2026-05-07 12:02 34.44282 26.93815 35164 ft 574 kts 148°
2026-05-07 12:03 34.37649 26.99188 35164 ft 574 kts 148°
2026-05-07 12:03 34.31020 27.04542 35169 ft 576 kts 148°
2026-05-07 12:04 34.24368 27.09908 35166 ft 576 kts 148°
2026-05-07 12:04 34.17695 27.15281 35168 ft 576 kts 148°
2026-05-07 12:05 34.10959 27.20693 35170 ft 579 kts 148°
2026-05-07 12:05 34.04261 27.26066 35168 ft 578 kts 148°
2026-05-07 12:06 33.97592 27.31402 35164 ft 579 kts 147°
2026-05-07 12:06 33.90561 27.35976 35160 ft 576 kts 159°
2026-05-07 12:07 33.83191 27.39845 35151 ft 576 kts 160°
2026-05-07 12:07 33.75856 27.43628 35149 ft 573 kts 159°
2026-05-07 12:08 33.68506 27.47484 35153 ft 576 kts 159°
2026-05-07 12:08 33.61167 27.51362 35143 ft 576 kts 158°
2026-05-07 12:09 33.53850 27.55225 35144 ft 577 kts 159°
2026-05-07 12:09 33.46473 27.59109 35152 ft 575 kts 159°
2026-05-07 12:10 33.39153 27.62953 35150 ft 578 kts 159°
2026-05-07 12:10 33.31737 27.66823 35146 ft 580 kts 159°
2026-05-07 12:11 33.24374 27.70612 35149 ft 577 kts 159°
2026-05-07 12:11 33.16988 27.74444 35146 ft 576 kts 159°
2026-05-07 12:12 33.09646 27.78268 35151 ft 581 kts 159°
2026-05-07 12:12 33.02197 27.82147 35146 ft 583 kts 159°
2026-05-07 12:13 32.94785 27.86000 35147 ft 581 kts 158°
2026-05-07 12:13 32.87347 27.89857 35145 ft 583 kts 159°
2026-05-07 12:14 32.79923 27.93701 35145 ft 581 kts 158°
2026-05-07 12:14 32.72521 27.97525 35144 ft 582 kts 158°
2026-05-07 12:15 32.65064 28.01370 35143 ft 583 kts 158°
2026-05-07 12:15 32.57643 28.05190 35143 ft 583 kts 158°
2026-05-07 12:16 32.50194 28.09015 35144 ft 583 kts 158°
2026-05-07 12:16 32.42726 28.12847 35143 ft 582 kts 158°
2026-05-07 12:17 32.35300 28.16648 35140 ft 582 kts 158°
2026-05-07 12:17 32.27832 28.20463 35135 ft 582 kts 158°
2026-05-07 12:18 32.20436 28.24236 35136 ft 580 kts 158°
2026-05-07 12:18 32.13023 28.28009 35135 ft 580 kts 157°
2026-05-07 12:19 32.05570 28.31797 35134 ft 584 kts 157°
2026-05-07 12:19 31.98122 28.35576 35130 ft 579 kts 157°
2026-05-07 12:20 31.90737 28.39318 35129 ft 579 kts 157°
2026-05-07 12:20 31.83337 28.43057 35129 ft 583 kts 157°
2026-05-07 12:21 31.75861 28.46818 35125 ft 579 kts 157°
2026-05-07 12:21 31.68476 28.50523 35125 ft 581 kts 157°
2026-05-07 12:22 31.61017 28.54259 35123 ft 581 kts 156°
2026-05-07 12:22 31.53597 28.57965 35118 ft 579 kts 157°
2026-05-07 12:23 31.46198 28.61647 35115 ft 583 kts 156°
2026-05-07 12:23 31.38733 28.65358 35109 ft 578 kts 158°
2026-05-07 12:24 31.31454 28.68917 35111 ft 579 kts 158°
2026-05-07 12:24 31.24028 28.72555 35109 ft 584 kts 158°
2026-05-07 12:25 31.16520 28.76260 35104 ft 581 kts 157°
2026-05-07 12:25 31.09082 28.79936 35100 ft 581 kts 158°
2026-05-07 12:26 31.01670 28.83591 35100 ft 582 kts 157°
2026-05-07 12:26 30.94219 28.87259 35091 ft 581 kts 157°
2026-05-07 12:27 30.86701 28.90952 35085 ft 583 kts 157°
2026-05-07 12:27 30.79234 28.94615 35084 ft 583 kts 157°
2026-05-07 12:28 30.71778 28.98266 35083 ft 582 kts 157°
2026-05-07 12:28 30.64327 29.01906 35075 ft 580 kts 157°
2026-05-07 12:29 30.56882 29.05539 35078 ft 581 kts 156°
2026-05-07 12:29 30.49660 29.09766 35070 ft 579 kts 142°
2026-05-07 12:30 30.43714 29.15947 35071 ft 573 kts 129°
2026-05-07 12:30 30.38339 29.22656 35068 ft 570 kts 128°
2026-05-07 12:31 30.32933 29.29338 35070 ft 569 kts 129°
2026-05-07 12:31 30.27494 29.36005 35069 ft 568 kts 129°
2026-05-07 12:32 30.21993 29.42531 35067 ft 571 kts 129°
2026-05-07 12:32 30.16422 29.49102 35066 ft 571 kts 129°
2026-05-07 12:33 30.08156 29.58922 35074 ft 567 kts 129°
2026-05-07 12:33 30.02658 29.65461 35065 ft 568 kts 130°
2026-05-07 12:34 29.97131 29.71953 35067 ft 568 kts 130°
2026-05-07 12:34 29.91601 29.78449 35068 ft 567 kts 130°
2026-05-07 12:35 29.86107 29.84935 35068 ft 566 kts 129°
2026-05-07 12:35 29.80617 29.91419 35064 ft 563 kts 129°
2026-05-07 12:36 29.75130 29.97888 35064 ft 563 kts 129°
2026-05-07 12:36 29.69674 30.04306 35070 ft 565 kts 129°
2026-05-07 12:37 29.64161 30.10779 35061 ft 563 kts 129°
2026-05-07 12:37 29.58712 30.17164 35060 ft 560 kts 130°
2026-05-07 12:38 29.53262 30.23542 35055 ft 560 kts 130°
2026-05-07 12:38 29.47812 30.29909 35043 ft 555 kts 130°
2026-05-07 12:39 29.42409 30.36211 35043 ft 556 kts 130°
2026-05-07 12:39 29.36982 30.42584 35023 ft 557 kts 129°
2026-05-07 12:40 29.31686 30.48924 35013 ft 549 kts 130°
2026-05-07 12:40 29.26389 30.55271 34859 ft 550 kts 130°
2026-05-07 12:41 29.23770 30.58398 35030 ft 548 kts 130°
2026-05-07 12:41 29.21110 30.61569 34916 ft 549 kts 130°
2026-05-07 12:41 29.15838 30.67826 34996 ft 546 kts 131°
2026-05-07 12:42 29.10538 30.74050 35008 ft 546 kts 131°
2026-05-07 12:42 29.05259 30.80281 35006 ft 547 kts 131°
2026-05-07 12:43 29.00011 30.86490 34999 ft 542 kts 131°
2026-05-07 12:43 28.94766 30.92694 34903 ft 542 kts 131°
2026-05-07 12:44 28.89562 30.98839 34992 ft 540 kts 132°
2026-05-07 12:44 28.84346 31.04991 34998 ft 538 kts 132°
2026-05-07 12:45 28.79139 31.11120 35002 ft 538 kts 132°
2026-05-07 12:45 28.73926 31.17246 35003 ft 537 kts 132°
2026-05-07 12:46 28.68733 31.23381 35007 ft 536 kts 131°
2026-05-07 12:46 28.63706 31.29706 35002 ft 534 kts 129°
2026-05-07 12:47 28.58739 31.36034 35006 ft 535 kts 130°
2026-05-07 12:47 28.53745 31.42343 35015 ft 534 kts 130°
2026-05-07 12:48 28.48727 31.48649 35010 ft 531 kts 130°
2026-05-07 12:48 28.43753 31.54888 35004 ft 530 kts 130°
2026-05-07 12:49 28.38796 31.61095 35010 ft 531 kts 130°
2026-05-07 12:49 28.33810 31.67321 35005 ft 527 kts 131°
2026-05-07 12:50 28.28861 31.73432 35006 ft 527 kts 131°
2026-05-07 12:50 28.23861 31.79632 35001 ft 527 kts 131°
2026-05-07 12:51 28.18930 31.85766 35006 ft 525 kts 131°
2026-05-07 12:51 28.14003 31.91893 35008 ft 524 kts 131°
2026-05-07 12:52 28.09092 31.97991 35007 ft 521 kts 131°
2026-05-07 12:52 28.04184 32.04113 35011 ft 522 kts 128°
2026-05-07 12:53 28.00293 32.11003 35027 ft 520 kts 117°
2026-05-07 12:53 27.96916 32.18247 35029 ft 517 kts 116°
2026-05-07 12:54 27.93517 32.25496 35041 ft 520 kts 117°
2026-05-07 12:54 27.90076 32.32679 35041 ft 520 kts 117°
2026-05-07 12:55 27.86589 32.39901 35028 ft 519 kts 117°
2026-05-07 12:55 27.83137 32.47035 35017 ft 519 kts 117°
2026-05-07 12:56 27.79645 32.54237 35003 ft 518 kts 118°
2026-05-07 12:56 27.76171 32.61390 35001 ft 518 kts 118°
2026-05-07 12:57 27.72685 32.68534 34999 ft 519 kts 119°
2026-05-07 12:57 27.69167 32.75663 34996 ft 517 kts 118°
2026-05-07 12:58 27.65696 32.82737 34990 ft 516 kts 119°
2026-05-07 12:58 27.62203 32.89876 34997 ft 518 kts 119°
2026-05-07 12:59 27.58712 32.97004 35001 ft 516 kts 119°
2026-05-07 12:59 27.55242 33.04080 35013 ft 514 kts 119°
2026-05-07 13:00 27.51767 33.11150 34998 ft 516 kts 119°
2026-05-07 13:00 27.48293 33.18208 34981 ft 516 kts 119°
2026-05-07 13:01 27.44802 33.25290 34967 ft 515 kts 119°
2026-05-07 13:01 27.41297 33.32388 34962 ft 516 kts 119°
2026-05-07 13:02 27.37796 33.39466 34958 ft 516 kts 120°
2026-05-07 13:02 27.34306 33.46507 34952 ft 516 kts 120°
2026-05-07 13:03 27.30798 33.53573 34939 ft 516 kts 120°
2026-05-07 13:03 27.27304 33.60600 34930 ft 515 kts 120°
2026-05-07 13:04 27.23797 33.67630 34919 ft 515 kts 121°
2026-05-07 13:04 27.20241 33.74668 34916 ft 514 kts 121°
2026-05-07 13:05 27.16876 33.81794 34921 ft 515 kts 115°
2026-05-07 13:05 27.14197 33.89279 34925 ft 516 kts 112°
2026-05-07 13:06 27.11626 33.96778 34912 ft 515 kts 112°
2026-05-07 13:06 27.08991 34.04288 34912 ft 513 kts 113°
2026-05-07 13:07 27.06342 34.11736 34905 ft 516 kts 114°
2026-05-07 13:07 27.03661 34.19239 34905 ft 517 kts 114°
2026-05-07 13:08 27.00983 34.26722 34893 ft 516 kts 114°
2026-05-07 13:08 26.98295 34.34219 34895 ft 517 kts 114°
2026-05-07 13:09 26.95602 34.41713 34900 ft 518 kts 114°
2026-05-07 13:09 26.92894 34.49237 34885 ft 518 kts 114°
2026-05-07 13:10 26.90171 34.56786 34869 ft 519 kts 114°
2026-05-07 13:10 26.87451 34.64318 34876 ft 520 kts 115°
2026-05-07 13:11 26.84722 34.71784 34875 ft 517 kts 116°
2026-05-07 13:11 26.81968 34.79285 34880 ft 521 kts 116°
2026-05-07 13:12 26.79227 34.86798 34878 ft 521 kts 116°
2026-05-07 13:12 26.76505 34.94275 34955 ft 521 kts 116°
2026-05-07 13:13 26.73776 35.01764 34882 ft 516 kts 116°
2026-05-07 13:13 26.71050 35.09226 34883 ft 519 kts 116°
2026-05-07 13:14 26.68304 35.16729 34880 ft 519 kts 116°
2026-05-07 13:14 26.65570 35.24188 34879 ft 519 kts 116°
2026-05-07 13:15 26.62828 35.31652 34883 ft 518 kts 117°
2026-05-07 13:15 26.60065 35.39156 34876 ft 521 kts 117°
2026-05-07 13:16 26.57312 35.46624 34876 ft 519 kts 117°
2026-05-07 13:16 26.54507 35.54100 34873 ft 518 kts 118°
2026-05-07 13:17 26.51683 35.61487 34872 ft 518 kts 118°
2026-05-07 13:17 26.48844 35.68874 34865 ft 518 kts 119°
2026-05-07 13:18 26.45959 35.76308 34863 ft 518 kts 119°
2026-05-07 13:18 26.43124 35.83669 34861 ft 517 kts 119°
2026-05-07 13:19 26.40276 35.91082 34855 ft 518 kts 119°
2026-05-07 13:19 26.37438 35.98468 34856 ft 518 kts 119°
2026-05-07 13:20 26.34575 36.05899 34851 ft 519 kts 119°
2026-05-07 13:20 26.31730 36.13276 34854 ft 517 kts 120°
2026-05-07 13:21 26.28875 36.20658 34852 ft 520 kts 120°
2026-05-07 13:21 26.26014 36.28049 34857 ft 517 kts 120°
2026-05-07 13:22 26.23147 36.35438 34868 ft 517 kts 120°
2026-05-07 13:22 26.20277 36.42818 34863 ft 520 kts 120°
2026-05-07 13:23 26.17332 36.50165 34863 ft 515 kts 123°
2026-05-07 13:23 26.13940 36.57179 34862 ft 510 kts 126°
2026-05-07 13:24 26.10460 36.64106 34855 ft 511 kts 126°
2026-05-07 13:24 26.06985 36.71040 34845 ft 510 kts 126°
2026-05-07 13:25 26.03533 36.77956 34844 ft 510 kts 126°
2026-05-07 13:25 26.00092 36.84896 34828 ft 512 kts 126°
2026-05-07 13:26 25.96652 36.91850 34825 ft 511 kts 126°
2026-05-07 13:26 25.93198 36.98815 34839 ft 513 kts 126°
2026-05-07 13:27 25.89738 37.05787 34847 ft 512 kts 126°
2026-05-07 13:27 25.86275 37.12759 34848 ft 510 kts 126°
2026-05-07 13:28 25.82828 37.19683 34863 ft 512 kts 127°
2026-05-07 13:28 25.79367 37.26619 34865 ft 515 kts 126°
2026-05-07 13:29 25.75916 37.33573 34872 ft 511 kts 126°
2026-05-07 13:29 25.72466 37.40515 34879 ft 512 kts 126°
2026-05-07 13:30 25.68999 37.47470 34887 ft 514 kts 126°
2026-05-07 13:30 25.65529 37.54428 34897 ft 512 kts 127°
2026-05-07 13:31 25.62072 37.61346 34900 ft 513 kts 127°
2026-05-07 13:31 25.58567 37.68323 34911 ft 514 kts 127°
2026-05-07 13:32 25.55079 37.75206 34918 ft 510 kts 127°
2026-05-07 13:32 25.51612 37.82074 34925 ft 511 kts 127°
2026-05-07 13:33 25.48127 37.88998 34931 ft 511 kts 127°
2026-05-07 13:33 25.44651 37.95899 34938 ft 513 kts 127°
2026-05-07 13:34 25.39415 38.06282 34943 ft 511 kts 127°
2026-05-07 13:35 25.35940 38.13155 34947 ft 513 kts 127°
2026-05-07 13:35 25.32416 38.20113 34942 ft 514 kts 127°
2026-05-07 13:36 25.28928 38.27001 34937 ft 511 kts 127°
2026-05-07 13:36 25.25408 38.33929 34935 ft 515 kts 128°
2026-05-07 13:37 25.21913 38.40803 34929 ft 511 kts 127°
2026-05-07 13:37 25.18403 38.47695 34932 ft 514 kts 128°
2026-05-07 13:38 25.14875 38.54604 34940 ft 515 kts 128°
2026-05-07 13:38 25.11355 38.61493 34955 ft 510 kts 127°
2026-05-07 13:39 25.07828 38.68355 34975 ft 511 kts 128°
2026-05-07 13:39 25.04293 38.75162 34995 ft 511 kts 128°
2026-05-07 13:40 25.00772 38.81976 34997 ft 511 kts 128°
2026-05-07 13:40 24.97249 38.88817 34959 ft 513 kts 128°
2026-05-07 13:41 24.93693 38.95713 34926 ft 511 kts 128°
2026-05-07 13:41 24.90195 39.02493 34908 ft 508 kts 128°
2026-05-07 13:42 24.86656 39.09323 34923 ft 512 kts 128°
2026-05-07 13:42 24.83122 39.16148 34923 ft 511 kts 128°
2026-05-07 13:43 24.79594 39.22955 34930 ft 509 kts 128°
2026-05-07 13:43 24.76069 39.29733 34926 ft 513 kts 128°
2026-05-07 13:44 24.72499 39.36596 34969 ft 511 kts 128°
2026-05-07 13:44 24.68961 39.43391 34993 ft 510 kts 128°
2026-05-07 13:45 24.65401 39.50213 35006 ft 511 kts 128°
2026-05-07 13:45 24.61850 39.57003 34993 ft 514 kts 128°
2026-05-07 13:46 24.58251 39.63887 34981 ft 511 kts 128°
2026-05-07 13:46 24.55034 39.70832 34967 ft 520 kts 116°
2026-05-07 13:46 24.54170 39.74774 34969 ft 533 kts 107°
2026-05-07 13:47 24.53673 39.78859 34969 ft 542 kts 103°
2026-05-07 13:47 24.53014 39.87142 34975 ft 543 kts 101°
2026-05-07 13:48 24.52336 39.95403 34991 ft 537 kts 102°
2026-05-07 13:48 24.51567 40.03599 34986 ft 542 kts 103°
2026-05-07 13:49 24.50772 40.11766 34999 ft 539 kts 103°
2026-05-07 13:49 24.49974 40.19939 35000 ft 538 kts 103°
2026-05-07 13:50 24.49162 40.28177 34995 ft 542 kts 103°
2026-05-07 13:50 24.48352 40.36413 34993 ft 539 kts 103°
2026-05-07 13:51 24.47541 40.44603 34994 ft 538 kts 103°
2026-05-07 13:51 24.46718 40.52823 34992 ft 543 kts 103°
2026-05-07 13:52 24.45890 40.61111 34996 ft 537 kts 103°
2026-05-07 13:52 24.45055 40.69283 34992 ft 537 kts 103°
2026-05-07 13:53 24.44189 40.77438 35005 ft 539 kts 103°
2026-05-07 13:53 24.43332 40.85699 35008 ft 539 kts 103°
2026-05-07 13:54 24.42490 40.93872 35011 ft 541 kts 103°
2026-05-07 13:54 24.41643 41.02101 35014 ft 536 kts 103°
2026-05-07 13:55 24.40799 41.10250 35024 ft 537 kts 103°
2026-05-07 13:55 24.39938 41.18478 35023 ft 540 kts 103°
2026-05-07 13:56 24.39086 41.26631 35031 ft 537 kts 103°
2026-05-07 13:56 24.38227 41.34796 35035 ft 539 kts 103°
2026-05-07 13:57 24.37361 41.42985 35034 ft 536 kts 103°
2026-05-07 13:57 24.36492 41.51159 35042 ft 535 kts 103°
2026-05-07 13:58 24.35623 41.59269 35037 ft 537 kts 103°
2026-05-07 13:58 24.34742 41.67444 35030 ft 535 kts 103°
2026-05-07 13:59 24.33831 41.75558 35026 ft 534 kts 103°
2026-05-07 13:59 24.32782 41.83642 35024 ft 529 kts 109°
2026-05-07 14:00 24.30858 41.91403 35023 ft 526 kts 114°
2026-05-07 14:00 24.28728 41.99146 35021 ft 527 kts 113°
2026-05-07 14:01 24.26653 42.06868 35026 ft 527 kts 113°
2026-05-07 14:01 24.24606 42.14617 35030 ft 526 kts 112°
2026-05-07 14:02 24.22559 42.22369 35035 ft 529 kts 112°
2026-05-07 14:02 24.20501 42.30152 35042 ft 528 kts 112°
2026-05-07 14:03 24.18474 42.37814 35049 ft 522 kts 112°
2026-05-07 14:03 24.16410 42.45563 35054 ft 528 kts 112°
2026-05-07 14:04 24.14342 42.53318 35058 ft 528 kts 112°
2026-05-07 14:04 24.12289 42.61021 35058 ft 525 kts 112°
2026-05-07 14:05 24.10209 42.68751 35062 ft 528 kts 113°
2026-05-07 14:05 24.08095 42.76498 35069 ft 529 kts 113°
2026-05-07 14:06 24.05994 42.84259 35077 ft 529 kts 113°
2026-05-07 14:06 24.03905 42.92004 35079 ft 531 kts 113°
2026-05-07 14:07 24.01802 42.99795 35082 ft 531 kts 112°
2026-05-07 14:07 23.99689 43.07607 35081 ft 531 kts 112°
2026-05-07 14:08 23.97581 43.15382 35075 ft 530 kts 112°
2026-05-07 14:08 23.95471 43.23138 35075 ft 534 kts 112°
2026-05-07 14:09 23.93329 43.30996 35066 ft 537 kts 113°
2026-05-07 14:09 23.91202 43.38809 35078 ft 528 kts 112°
2026-05-07 14:10 23.89076 43.46574 35084 ft 532 kts 112°
2026-05-07 14:10 23.86937 43.54367 35082 ft 537 kts 113°
2026-05-07 14:11 23.84791 43.62190 35072 ft 532 kts 112°
2026-05-07 14:11 23.82638 43.69957 35066 ft 534 kts 114°
2026-05-07 14:12 23.80456 43.77738 35052 ft 534 kts 113°
2026-05-07 14:12 23.78280 43.85558 35054 ft 536 kts 113°
2026-05-07 14:13 23.76845 43.93598 35044 ft 542 kts 101°
2026-05-07 14:13 23.76288 44.01900 35043 ft 547 kts 99°
2026-05-07 14:14 23.75778 44.10243 35046 ft 547 kts 99°
2026-05-07 14:14 23.75191 44.18554 35046 ft 548 kts 100°
2026-05-07 14:15 23.74565 44.26880 35042 ft 547 kts 99°
2026-05-07 14:15 23.73933 44.35202 35046 ft 548 kts 99°
2026-05-07 14:16 23.73303 44.43478 35052 ft 546 kts 99°
2026-05-07 14:16 23.72666 44.51788 35058 ft 548 kts 99°
2026-05-07 14:17 23.72024 44.60095 35049 ft 548 kts 99°
2026-05-07 14:17 23.71371 44.68424 35039 ft 545 kts 100°
2026-05-07 14:18 23.70695 44.76642 35035 ft 544 kts 100°
2026-05-07 14:18 23.70026 44.84900 35033 ft 547 kts 100°
2026-05-07 14:19 23.69362 44.93238 35029 ft 545 kts 100°
2026-05-07 14:19 23.68707 45.01462 35024 ft 545 kts 100°
2026-05-07 14:20 23.68038 45.09765 35028 ft 546 kts 100°
2026-05-07 14:20 23.67369 45.18033 35034 ft 545 kts 100°
2026-05-07 14:21 23.66697 45.26278 35034 ft 544 kts 100°
2026-05-07 14:21 23.66021 45.34517 35031 ft 543 kts 100°
2026-05-07 14:22 23.65341 45.42736 35023 ft 544 kts 99°
2026-05-07 14:22 23.64654 45.51002 35018 ft 544 kts 100°
2026-05-07 14:23 23.63963 45.59261 35007 ft 542 kts 99°
2026-05-07 14:23 23.63271 45.67451 34991 ft 542 kts 100°
2026-05-07 14:24 23.62537 45.75688 34984 ft 542 kts 101°
2026-05-07 14:24 23.61821 45.83859 34980 ft 541 kts 100°
2026-05-07 14:25 23.61111 45.92093 34975 ft 541 kts 100°
2026-05-07 14:25 23.60405 46.00270 34973 ft 540 kts 100°
2026-05-07 14:26 23.59693 46.08459 34985 ft 540 kts 100°
2026-05-07 14:26 23.58974 46.16666 34999 ft 541 kts 100°
2026-05-07 14:27 23.58253 46.24864 35011 ft 540 kts 100°
2026-05-07 14:27 23.57530 46.33021 35023 ft 540 kts 100°
2026-05-07 14:28 23.56804 46.41167 35039 ft 541 kts 100°
2026-05-07 14:28 23.56066 46.49402 35054 ft 539 kts 99°
2026-05-07 14:29 23.55331 46.57549 35048 ft 540 kts 100°
2026-05-07 14:29 23.54587 46.65747 35026 ft 539 kts 100°
2026-05-07 14:30 23.53818 46.73845 35003 ft 537 kts 100°
2026-05-07 14:30 23.53042 46.82033 34991 ft 539 kts 100°
2026-05-07 14:31 23.52288 46.90156 34978 ft 537 kts 100°
2026-05-07 14:31 23.51536 46.98270 34962 ft 536 kts 100°
2026-05-07 14:32 23.50779 47.06369 34955 ft 538 kts 100°
2026-05-07 14:32 23.50014 47.14513 34946 ft 538 kts 99°
2026-05-07 14:33 23.49250 47.22619 34945 ft 535 kts 99°
2026-05-07 14:33 23.48476 47.30750 34945 ft 538 kts 99°
2026-05-07 14:34 23.47700 47.38878 34944 ft 537 kts 99°
2026-05-07 14:34 23.46922 47.46985 34945 ft 537 kts 99°
2026-05-07 14:35 23.46137 47.55109 34939 ft 538 kts 99°
2026-05-07 14:35 23.45348 47.63249 34930 ft 536 kts 99°
2026-05-07 14:36 23.44542 47.71318 34920 ft 535 kts 100°
2026-05-07 14:36 23.43716 47.79423 34908 ft 535 kts 100°
2026-05-07 14:37 23.42913 47.87483 34899 ft 535 kts 99°
2026-05-07 14:37 23.41711 47.99593 34887 ft 534 kts 99°
2026-05-07 14:38 23.40905 48.07662 34880 ft 534 kts 99°
2026-05-07 14:38 23.40090 48.15773 34878 ft 535 kts 99°
2026-05-07 14:39 23.39279 48.23809 34875 ft 533 kts 99°
2026-05-07 14:39 23.38459 48.31882 34873 ft 535 kts 99°
2026-05-07 14:40 23.37871 48.40011 34871 ft 538 kts 95°
2026-05-07 14:40 23.37616 48.48192 34866 ft 536 kts 94°
2026-05-07 14:41 23.37345 48.56314 34865 ft 536 kts 95°
2026-05-07 14:41 23.37028 48.64397 34868 ft 537 kts 95°
2026-05-07 14:42 23.36667 48.72566 34870 ft 535 kts 95°
2026-05-07 14:42 23.36300 48.80706 34860 ft 536 kts 95°
2026-05-07 14:43 23.35948 48.88874 34834 ft 536 kts 95°
2026-05-07 14:43 23.35601 48.97016 34822 ft 535 kts 95°
2026-05-07 14:44 23.35250 49.05128 34815 ft 535 kts 95°
2026-05-07 14:44 23.34361 49.13191 34813 ft 533 kts 102°
2026-05-07 14:45 23.33147 49.21199 34809 ft 531 kts 102°
2026-05-07 14:45 23.31960 49.29143 34805 ft 531 kts 101°
2026-05-07 14:46 23.30795 49.37168 34809 ft 532 kts 101°
2026-05-07 14:46 23.29646 49.45138 34807 ft 531 kts 101°
2026-05-07 14:47 23.28488 49.53138 34811 ft 529 kts 101°
2026-05-07 14:47 23.27330 49.61098 34811 ft 531 kts 101°
2026-05-07 14:48 23.26162 49.69036 34810 ft 530 kts 102°
2026-05-07 14:48 23.24965 49.76984 34811 ft 528 kts 102°
2026-05-07 14:49 23.23787 49.84898 34803 ft 529 kts 101°
2026-05-07 14:49 23.22610 49.92863 34796 ft 527 kts 101°
2026-05-07 14:50 23.21443 50.00750 34788 ft 528 kts 101°
2026-05-07 14:50 23.20262 50.08698 34788 ft 527 kts 101°
2026-05-07 14:51 23.19085 50.16589 34784 ft 527 kts 101°
2026-05-07 14:51 23.17897 50.24527 34782 ft 528 kts 101°
2026-05-07 14:52 23.16717 50.32383 34781 ft 526 kts 101°
2026-05-07 14:52 23.15522 50.40318 34778 ft 526 kts 101°
2026-05-07 14:53 23.14330 50.48197 34784 ft 526 kts 101°
2026-05-07 14:53 23.13132 50.56086 34786 ft 526 kts 101°
2026-05-07 14:54 23.11930 50.63984 34794 ft 525 kts 101°
2026-05-07 14:54 23.10706 50.71843 34789 ft 527 kts 101°
2026-05-07 14:55 23.09473 50.79708 34786 ft 524 kts 101°
2026-05-07 14:55 23.08256 50.87565 34782 ft 524 kts 101°
2026-05-07 14:56 23.07043 50.95425 34780 ft 525 kts 101°
2026-05-07 14:56 23.05825 51.03292 34779 ft 524 kts 101°
2026-05-07 14:57 23.04605 51.11138 34778 ft 525 kts 101°
2026-05-07 14:57 23.03384 51.18963 34776 ft 523 kts 101°
2026-05-07 14:58 23.02153 51.26828 34776 ft 523 kts 101°
2026-05-07 14:58 23.00923 51.34665 34775 ft 524 kts 100°
2026-05-07 14:59 22.99690 51.42489 34771 ft 523 kts 101°
2026-05-07 14:59 22.98454 51.50312 34765 ft 523 kts 101°
2026-05-07 15:00 22.97217 51.58112 34759 ft 522 kts 100°
2026-05-07 15:00 22.95971 51.65941 34751 ft 522 kts 101°
2026-05-07 15:01 22.94702 51.73704 34747 ft 521 kts 101°
2026-05-07 15:01 22.93422 51.81562 34749 ft 522 kts 101°
2026-05-07 15:02 22.92174 51.89299 34754 ft 520 kts 101°
2026-05-07 15:02 22.90921 51.97075 34767 ft 521 kts 101°
2026-05-07 15:03 22.89663 52.04865 34776 ft 521 kts 101°
2026-05-07 15:03 22.88401 52.12669 34777 ft 521 kts 101°
2026-05-07 15:04 22.87132 52.20475 34779 ft 520 kts 101°
2026-05-07 15:04 22.85867 52.28225 34780 ft 519 kts 101°
2026-05-07 15:05 22.84596 52.35989 34782 ft 520 kts 101°
2026-05-07 15:05 22.83324 52.43733 34783 ft 519 kts 101°
2026-05-07 15:06 22.82271 52.51545 34786 ft 519 kts 94°
2026-05-07 15:06 22.82070 52.59395 34786 ft 520 kts 91°
2026-05-07 15:07 22.81975 52.67055 34788 ft 518 kts 91°
2026-05-07 15:07 22.81781 52.74882 34788 ft 517 kts 92°
2026-05-07 15:08 22.81563 52.82730 34790 ft 517 kts 92°
2026-05-07 15:08 22.81349 52.90583 34790 ft 517 kts 92°
2026-05-07 15:09 22.81137 52.98369 34793 ft 517 kts 92°
2026-05-07 15:09 22.80920 53.06233 34789 ft 517 kts 92°
2026-05-07 15:10 22.80700 53.14075 34790 ft 517 kts 92°
2026-05-07 15:10 22.80475 53.21932 34787 ft 516 kts 92°
2026-05-07 15:11 22.80248 53.29738 34785 ft 516 kts 91°
2026-05-07 15:11 22.80015 53.37607 34786 ft 517 kts 92°
2026-05-07 15:12 22.79780 53.45435 34787 ft 516 kts 92°
2026-05-07 15:12 22.79541 53.53249 34788 ft 516 kts 92°
2026-05-07 15:13 22.79299 53.61033 34789 ft 517 kts 92°
2026-05-07 15:13 22.79042 53.68905 34793 ft 516 kts 92°
2026-05-07 15:14 22.78762 53.76678 34796 ft 516 kts 92°
2026-05-07 15:14 22.78493 53.84550 34803 ft 516 kts 92°
2026-05-07 15:15 22.78234 53.92356 34806 ft 515 kts 92°
2026-05-07 15:15 22.78178 54.00138 34800 ft 515 kts 83°
2026-05-07 15:16 22.79528 54.07858 34798 ft 516 kts 76°
2026-05-07 15:16 22.81194 54.15448 34797 ft 516 kts 76°
2026-05-07 15:17 22.82803 54.23046 34795 ft 516 kts 77°
2026-05-07 15:17 22.84369 54.30696 34796 ft 516 kts 77°
2026-05-07 15:18 22.85915 54.38336 34796 ft 516 kts 77°
2026-05-07 15:18 22.87463 54.46009 34798 ft 516 kts 77°
2026-05-07 15:19 22.88999 54.53635 34798 ft 516 kts 77°
2026-05-07 15:19 22.90539 54.61300 34794 ft 516 kts 77°
2026-05-07 15:20 22.92068 54.68975 34791 ft 516 kts 78°
2026-05-07 15:20 22.93569 54.76640 34790 ft 517 kts 77°
2026-05-07 15:21 22.95082 54.84290 34795 ft 516 kts 77°
2026-05-07 15:21 22.96598 54.91925 34806 ft 516 kts 77°
2026-05-07 15:22 22.98127 54.99630 34813 ft 517 kts 77°
2026-05-07 15:22 22.99635 55.07255 34814 ft 514 kts 77°
2026-05-07 15:23 23.01251 55.14896 34807 ft 514 kts 70°
2026-05-07 15:23 23.02697 55.18430 34811 ft 514 kts 58°
2026-05-07 15:23 23.04781 55.21603 34808 ft 512 kts 47°
2026-05-07 15:24 23.07416 55.24260 34810 ft 510 kts 34°
2026-05-07 15:24 23.10463 55.26270 34809 ft 506 kts 22°
2026-05-07 15:24 23.17210 55.28650 34810 ft 504 kts 12°
2026-05-07 15:25 23.24080 55.30480 34811 ft 503 kts 12°
2026-05-07 15:25 23.30888 55.32382 34812 ft 503 kts 12°
2026-05-07 15:26 23.37742 55.34380 34814 ft 505 kts 13°
2026-05-07 15:26 23.44546 55.36390 34809 ft 502 kts 13°
2026-05-07 15:27 23.51384 55.38414 34811 ft 503 kts 12°
2026-05-07 15:27 23.58201 55.40430 34811 ft 503 kts 12°
2026-05-07 15:28 23.65006 55.42443 34492 ft 507 kts 12°
2026-05-07 15:28 23.68436 55.43459 34214 ft 506 kts 12°
2026-05-07 15:28 23.71830 55.44465 33941 ft 501 kts 12°
2026-05-07 15:29 23.75244 55.45478 33668 ft 497 kts 12°
2026-05-07 15:29 23.78598 55.46474 33394 ft 495 kts 12°
2026-05-07 15:29 23.81934 55.47464 33120 ft 493 kts 12°
2026-05-07 15:29 23.85241 55.48445 32851 ft 492 kts 12°
2026-05-07 15:30 23.88580 55.49436 32590 ft 490 kts 12°
2026-05-07 15:30 23.91889 55.50418 32342 ft 488 kts 12°
2026-05-07 15:30 23.95181 55.51395 31969 ft 487 kts 12°
2026-05-07 15:30 23.98476 55.52420 31572 ft 485 kts 17°
2026-05-07 15:31 24.01513 55.53972 31187 ft 485 kts 29°
2026-05-07 15:31 24.04256 55.56134 30773 ft 485 kts 37°
2026-05-07 15:31 24.06823 55.58576 30308 ft 485 kts 40°
2026-05-07 15:31 24.09307 55.61092 29844 ft 483 kts 40°
2026-05-07 15:32 24.11785 55.63628 29375 ft 479 kts 40°
2026-05-07 15:32 24.14232 55.66118 28908 ft 473 kts 41°
2026-05-07 15:32 24.16620 55.68544 28441 ft 469 kts 41°
2026-05-07 15:32 24.19040 55.70987 27950 ft 465 kts 41°
2026-05-07 15:33 24.21430 55.73384 27464 ft 460 kts 41°
2026-05-07 15:33 24.23801 55.75751 26976 ft 456 kts 40°
2026-05-07 15:33 24.26173 55.78112 26486 ft 452 kts 40°
2026-05-07 15:33 24.28499 55.80426 26002 ft 448 kts 40°
2026-05-07 15:34 24.30822 55.82737 25515 ft 444 kts 41°
2026-05-07 15:34 24.33090 55.84992 25034 ft 440 kts 41°
2026-05-07 15:34 24.35368 55.87259 24547 ft 435 kts 41°
2026-05-07 15:34 24.37616 55.89498 24064 ft 431 kts 41°
2026-05-07 15:35 24.39826 55.91698 23578 ft 426 kts 41°
2026-05-07 15:35 24.42031 55.93895 23079 ft 422 kts 41°
2026-05-07 15:35 24.44202 55.96059 22564 ft 418 kts 41°
2026-05-07 15:35 24.46350 55.98200 22074 ft 415 kts 42°
2026-05-07 15:36 24.48476 56.00323 21585 ft 411 kts 42°
2026-05-07 15:36 24.50568 56.02490 21074 ft 407 kts 43°
2026-05-07 15:36 24.52629 56.04558 20472 ft 407 kts 41°
2026-05-07 15:36 24.54750 56.06646 19858 ft 406 kts 42°
2026-05-07 15:37 24.56843 56.08716 19250 ft 406 kts 42°
2026-05-07 15:37 24.58986 56.10732 18645 ft 404 kts 36°
2026-05-07 15:37 24.61451 56.12194 18041 ft 403 kts 21°
2026-05-07 15:37 24.64156 56.13011 17436 ft 402 kts 12°
2026-05-07 15:38 24.66931 56.13538 16827 ft 402 kts 10°
2026-05-07 15:38 24.69696 56.13995 16208 ft 400 kts 10°
2026-05-07 15:38 24.72416 56.14451 15598 ft 396 kts 10°
2026-05-07 15:38 24.75084 56.14914 14989 ft 382 kts 11°
2026-05-07 15:39 24.77669 56.15303 14388 ft 369 kts
2026-05-07 15:39 24.80215 56.15055 13777 ft 361 kts 347°
2026-05-07 15:39 24.82516 56.14071 13224 ft 352 kts 332°
2026-05-07 15:39 24.84592 56.12733 12752 ft 341 kts 329°
2026-05-07 15:40 24.86469 56.11185 12287 ft 331 kts 316°
2026-05-07 15:40 24.87948 56.09287 11840 ft 322 kts 305°
2026-05-07 15:40 24.89129 56.07244 11383 ft 314 kts 300°
2026-05-07 15:40 24.90182 56.05160 10945 ft 305 kts 299°
2026-05-07 15:41 24.91170 56.03127 10540 ft 304 kts 298°
2026-05-07 15:41 24.92169 56.01058 10134 ft 304 kts 298°
2026-05-07 15:41 24.93155 55.99017 9722 ft 304 kts 298°
2026-05-07 15:41 24.94152 55.96951 9301 ft 303 kts 298°
2026-05-07 15:42 24.95145 55.94896 8886 ft 303 kts 298°
2026-05-07 15:42 24.96131 55.92853 8460 ft 302 kts 298°
2026-05-07 15:42 24.97118 55.90809 8043 ft 302 kts 298°
2026-05-07 15:42 24.98104 55.88766 7640 ft 300 kts 298°
2026-05-07 15:43 24.99074 55.86754 7306 ft 298 kts 298°
2026-05-07 15:43 25.00041 55.84747 6949 ft 295 kts 297°
2026-05-07 15:43 25.01002 55.82751 6599 ft 293 kts 297°
2026-05-07 15:43 25.01946 55.80789 6246 ft 291 kts 297°
2026-05-07 15:44 25.02890 55.78828 5892 ft 289 kts 297°
2026-05-07 15:44 25.03828 55.76876 5541 ft 287 kts 297°
2026-05-07 15:44 25.04752 55.74955 5173 ft 283 kts 297°
2026-05-07 15:44 25.05660 55.73064 4821 ft 274 kts 297°
2026-05-07 15:45 25.06535 55.71242 4454 ft 266 kts 297°
2026-05-07 15:45 25.07397 55.69448 4093 ft 259 kts 297°
2026-05-07 15:45 25.08231 55.67709 3735 ft 253 kts 297°
2026-05-07 15:45 25.09040 55.66024 3400 ft 248 kts 296°
2026-05-07 15:46 25.10634 55.62862 3048 ft 219 kts 302°
2026-05-07 15:46 25.11409 55.61458 3023 ft 211 kts 298°
2026-05-07 15:46 25.12151 55.60065 3025 ft 210 kts 299°
2026-05-07 15:47 25.12882 55.58723 3020 ft 196 kts 299°
2026-05-07 15:47 25.13584 55.57455 3017 ft 189 kts 300°
2026-05-07 15:47 25.14275 55.56211 3020 ft 188 kts 300°
2026-05-07 15:47 25.14932 55.55033 2976 ft 179 kts 300°
2026-05-07 15:48 25.15579 55.53875 2827 ft 175 kts 300°
2026-05-07 15:48 25.16217 55.52730 2628 ft 175 kts 300°
2026-05-07 15:48 25.16848 55.51599 2405 ft 169 kts 300°
2026-05-07 15:48 25.17431 55.50557 2259 ft 151 kts 300°
2026-05-07 15:49 25.17969 55.49589 1985 ft 142 kts 300°
2026-05-07 15:49 25.18479 55.48673 1806 ft 137 kts 300°
2026-05-07 15:49 25.18981 55.47770 1670 ft 137 kts 300°
2026-05-07 15:49 25.19482 55.46869 1520 ft 139 kts 301°
2026-05-07 15:50 25.19992 55.45953 1358 ft 140 kts 301°
2026-05-07 15:50 25.20506 55.45030 1206 ft 139 kts 300°
2026-05-07 15:50 25.21007 55.44114 1028 ft 139 kts 301°
2026-05-07 15:50 25.21522 55.43213 849 ft 139 kts 301°
2026-05-07 15:51 25.22023 55.42304 660 ft 139 kts 301°
2026-05-07 15:51 25.22535 55.41385 461 ft 140 kts 301°
2026-05-07 15:51 25.23039 55.40475 303 ft 137 kts 301°
2026-05-07 15:51 25.23539 55.39576 120 ft 137 kts 302°
2026-05-07 15:52 25.24030 55.38698 36 ft 130 kts 302°
2026-05-07 15:52 25.24428 55.37976 41 ft 86 kts 301°
2026-05-07 15:52 25.24660 55.37558 46 ft 40 kts 302°
2026-05-07 15:52 25.24754 55.37374 52 ft 24 kts 292°
2026-05-07 15:53 25.24786 55.37209 59 ft 20 kts 271°
2026-05-07 15:53 25.24790 55.37069 64 ft 16 kts 273°
2026-05-07 15:53 25.24801 55.36958 67 ft 14 kts 290°
2026-05-07 15:53 25.24840 55.36856 66 ft 14 kts 292°
2026-05-07 15:54 25.24871 55.36737 61 ft 17 kts 283°
2026-05-07 15:54 25.24921 55.36610 53 ft 17 kts 301°
2026-05-07 15:54 25.24997 55.36472 43 ft 23 kts 302°
2026-05-07 15:54 25.25092 55.36300 33 ft 28 kts 302°
2026-05-07 15:55 25.25197 55.36112 27 ft 29 kts 302°
2026-05-07 15:55 25.25300 55.35927 23 ft 22 kts 301°
2026-05-07 15:55 25.25381 55.35778 21 ft 23 kts 301°
2026-05-07 15:55 25.25470 55.35617 17 ft 25 kts 301°
2026-05-07 15:56 25.25562 55.35453 16 ft 24 kts 302°
2026-05-07 15:56 25.25654 55.35289 15 ft 24 kts 302°
2026-05-07 15:56 25.25739 55.35133 18 ft 22 kts 301°
2026-05-07 15:56 25.25805 55.35008 22 ft 15 kts 300°
2026-05-07 15:57 25.25840 55.34908 25 ft 12 kts 277°
2026-05-07 15:57 25.25841 55.34818 26 ft 10 kts 272°
2026-05-07 15:57 25.25855 55.34741 28 ft 9 kts 292°
2026-05-07 15:57 25.25887 55.34678 30 ft 9 kts 301°
2026-05-07 15:58 25.25920 55.34621 33 ft 8 kts 302°
2026-05-07 15:58 25.25949 55.34567 35 ft 8 kts 301°
2026-05-07 15:58 25.25979 55.34512 37 ft 8 kts 301°
2026-05-07 15:58 25.25985 55.34460 37 ft 6 kts 239°
2026-05-07 15:59 25.25941 55.34427 36 ft 8 kts 211°
2026-05-07 15:59 25.25911 55.34407 35 ft 3 kts 212°
2026-05-07 15:59 25.25909 55.34406 35 ft 0 kts 212°